[[{"header":{"parameterUnit":"m.s-1","parameterCategory":1,"la1":30.2992,"la2":30.254,"lo1":-89.0895,"lo2":-89.0443,"dy":0.0025,"dx":0.0025,"nx":19,"ny":19,"refTime":"2026-05-19T03:00:00:Z","depth":0,"parameterNumber":2,"parameterNumberName":"U-component_of_WINDS"},"data":[0,0,0,-4.0834,-4.0838,-4.1022,-4.1023,-4.1261,-4.1263,0,0,0,0,0,0,0,0,0,0,0,-4.078,-4.0782,-4.0834,-4.0838,-4.1022,-4.1023,-4.1261,-4.1263,0,0,0,0,0,0,0,0,0,0,0,-4.0779,-4.0781,-4.0783,-4.0839,-4.1022,-4.1023,-4.126,-4.1121,0,0,0,0,0,0,0,0,0,0,-4.0941,-4.0892,-4.0781,-4.0783,-4.084,-4.1022,-4.1023,-4.1114,-4.1129,-4.1179,0,-4.1222,0,-4.1247,-4.128,-4.128,0,0,0,-4.0838,-4.0879,-4.0928,-4.0784,-4.0842,-4.1022,-4.0939,-4.1123,-4.114,-4.1199,-4.1226,-4.1234,-4.1251,-4.1281,-4.1282,-4.1567,-4.1568,0,0,-4.0828,-4.0814,-4.0916,-4.094,-4.091,-4.0933,-4.0945,-4.1133,-4.1161,-4.1226,-4.124,-4.1255,-4.1283,-4.1285,-4.1565,-4.1567,0,0,0,-4.0799,-4.0807,-4.0851,-4.093,-4.0963,-4.0939,-4.0952,-4.1153,-4.1168,-4.1243,-4.1257,-4.1284,-4.1287,-4.1564,-4.1566,-4.1618,0,0,0,-4.0793,-4.079,-4.0847,-4.084,-4.0959,-4.106,-4.0967,-4.1155,-4.1177,-4.1256,-4.1284,-4.1289,-4.1562,-4.1565,-4.1613,-4.1644,0,0,0,-4.0768,-4.0787,-4.0814,-4.0839,-4.0918,-4.1057,-4.1084,-4.116,-4.1186,-4.1281,-4.129,-4.1561,-4.1564,-4.1609,-4.1637,-4.1714,0,0,0,-4.0738,-4.0858,-4.0814,-4.0955,-4.0916,-4.1088,-4.1082,-4.1212,-4.1299,-4.1285,-4.1563,-4.1566,-4.1608,-4.1633,-4.1709,-4.1774,-4.18,0,0,-4.0882,-4.0875,-4.0958,-4.0925,-4.1101,-4.1061,-4.1245,-4.1339,-4.1361,-4.1497,-4.1504,-4.1614,-4.1637,-4.1713,-4.1955,-4.1975,0,0,0,-4.0999,-4.1059,-4.1109,-4.1191,-4.1265,-4.1331,-4.1398,-4.1433,-4.1549,-4.1428,-4.1664,-4.1678,-4.1723,-4.1754,-4.1772,-4.1811,-4.158,-4.158,-4.158,-4.1182,-4.1204,-4.1343,-4.1388,-4.1468,-4.1536,-4.1603,-4.1662,-4.1661,-4.1716,-4.1756,-4.19,-4.1937,-4.195,-4.199,-4.1794,-4.1794,-4.1794,-4.1794,-4.1393,-4.148,-4.1477,-4.1611,-4.1634,-4.1747,-4.1818,-4.1814,-4.1923,-4.1872,-4.1913,-4.1853,-4.1972,-4.2008,-4.1798,-4.1798,-4.1797,-4.1797,-4.1797,-4.1513,-4.1559,-4.1599,-4.172,-4.1812,-4.1854,-4.1958,-4.1976,-4.1994,-4.2035,-4.2078,-4.2077,-4.2077,-4.2055,-4.2055,-4.2056,-4.2056,-4.2056,-4.2057,-4.1621,-4.1665,-4.175,-4.184,-4.1895,-4.197,-4.2041,-4.2097,-4.2163,-4.2167,-4.2168,-4.2161,-4.198,-4.1933,-4.2064,-4.2063,-4.2062,-4.2061,-4.2061,-4.1824,-4.1781,-4.1912,-4.1968,-4.2075,-4.2164,-4.2187,-4.2298,-4.2346,-4.2398,-4.2383,-4.2247,-4.2241,-4.2227,-4.2188,-4.2379,-4.2379,-4.2379,-4.2379,-4.1923,-4.1923,-4.2061,-4.2149,-4.2237,-4.227,-4.2419,-4.2477,-4.2529,-4.2561,-4.2536,-4.2487,-4.2472,-4.2475,-4.2456,-4.242,-4.2665,-4.2665,-4.2665,-4.2049,-4.2057,-4.218,-4.223,-4.2315,-4.2388,-4.2529,-4.263,-4.2681,-4.2677,-4.2585,-4.2573,-4.2494,-4.2468,-4.2459,-4.2429,-4.2363,0,0]},{"header":{"parameterUnit":"m.s-1","parameterCategory":1,"la1":30.2992,"la2":30.254,"lo1":-89.0895,"lo2":-89.0443,"dy":0.0025,"dx":0.0025,"nx":19,"ny":19,"refTime":"2026-05-19T03:00:00:Z","depth":0,"parameterNumber":3,"parameterNumberName":"V-component_of_WINDS"},"data":[0,0,0,2.5431,2.5432,2.5493,2.5494,2.5577,2.5577,0,0,0,0,0,0,0,0,0,0,0,2.5417,2.5417,2.5431,2.5432,2.5493,2.5494,2.5576,2.5577,0,0,0,0,0,0,0,0,0,0,0,2.5416,2.5417,2.5418,2.5433,2.5493,2.5494,2.5576,2.5528,0,0,0,0,0,0,0,0,0,0,2.5468,2.5459,2.5417,2.5418,2.5433,2.5493,2.5494,2.5526,2.5531,2.5551,0,2.5571,0,2.5576,2.5583,2.5584,0,0,0,2.5429,2.5454,2.5467,2.5418,2.5434,2.5493,2.5465,2.5529,2.5535,2.5559,2.5572,2.5575,2.5577,2.5584,2.5584,2.5715,2.5716,0,0,2.5426,2.5429,2.5463,2.5472,2.5464,2.5463,2.5467,2.5532,2.5547,2.5573,2.5577,2.5579,2.5585,2.5585,2.5714,2.5715,0,0,0,2.5418,2.5427,2.5438,2.5468,2.5479,2.5465,2.5469,2.5544,2.5548,2.5578,2.558,2.5585,2.5586,2.5714,2.5715,2.5757,0,0,0,2.5416,2.5423,2.5437,2.544,2.5478,2.5513,2.548,2.5543,2.555,2.5579,2.5585,2.5587,2.5713,2.5714,2.5754,2.5776,0,0,0,2.5411,2.5422,2.5432,2.544,2.5467,2.5511,2.5519,2.5545,2.5552,2.5584,2.5587,2.5712,2.5714,2.5751,2.5772,2.5813,0,0,0,2.5407,2.5467,2.5433,2.5502,2.5466,2.5537,2.5518,2.5571,2.5603,2.5585,2.5713,2.5715,2.5751,2.5769,2.581,2.5848,2.5865,0,0,2.5485,2.5477,2.5517,2.5488,2.5567,2.5528,2.5612,2.5638,2.5637,2.5689,2.5692,2.5755,2.5772,2.5812,2.5953,2.5966,0,0,0,2.5543,2.5572,2.5592,2.5625,2.5647,2.5668,2.5681,2.569,2.5735,2.5665,2.578,2.579,2.5814,2.5832,2.5843,2.5864,2.5723,2.5723,2.5723,2.5659,2.5656,2.5723,2.5728,2.576,2.5773,2.5798,2.5814,2.58,2.5828,2.5843,2.5929,2.5951,2.5959,2.598,2.5863,2.5863,2.5863,2.5863,2.5775,2.5816,2.5799,2.5857,2.5854,2.5903,2.5918,2.5908,2.5952,2.5917,2.5937,2.5899,2.5973,2.5992,2.5866,2.5866,2.5865,2.5865,2.5865,2.5851,2.587,2.5882,2.593,2.5967,2.5969,2.6014,2.6009,2.6004,2.6024,2.6041,2.604,2.6039,2.6033,2.6033,2.6033,2.6033,2.6034,2.6034,2.5925,2.5938,2.5977,2.6007,2.6028,2.6055,2.607,2.609,2.6111,2.6104,2.6104,2.6088,2.5981,2.5955,2.6038,2.6038,2.6037,2.6037,2.6036,2.6044,2.6017,2.6078,2.6099,2.6135,2.6173,2.6166,2.6208,2.6223,2.6246,2.6226,2.6148,2.6138,2.613,2.6108,2.6226,2.6226,2.6226,2.6226,2.6109,2.6105,2.6166,2.6201,2.6234,2.6235,2.6303,2.6316,2.6325,2.6335,2.6317,2.6287,2.6278,2.6274,2.6262,2.6242,2.6392,2.6392,2.6392,2.6183,2.6182,2.6241,2.6251,2.6279,2.6304,2.6368,2.6408,2.6412,2.6399,2.6342,2.6335,2.6287,2.6272,2.6257,2.6238,2.6201,0,0]}]]